Location: St. Louis
(38.6270°N, 90.1994°W)
Time: 04:27:37
(UTC-06:00)

Explorer 7 - Pass Details

Date: 11 December 2021
Orbit: 483 x 674 km, 50.3° (Epoch: 19 January)

Event Time Altitude Azimuth Distance (km) Brightness Sun altitude
Exits shadow 06:08:48 11° 326° (NW) 1,802 9.0 -11.4°
Maximum altitude 06:11:17 17° 3° (N) 1,460 8.8 -11.0°
Drops below altitude 10° 06:13:58 10° 44° (NE) 1,801 9.8 -10.5°
Sets 06:16:48 0° 66° (ENE) 2,652 11.0 -10.0°
